Location: Aldenham
(51.6667°N, 0.3500°W)
Time: 00:33:05
(UTC+00:00)

A-11 Canister half - Pass Details

Date: 16 February 2026
Orbit: 1512 x 1687 km, 47.2° (Epoch: 8 March)

Event Time Altitude Azimuth Distance (km) Brightness Sun altitude
Rises 23:14:48 0° 251° (WSW) 4,928 11.7 -48.5°
Enters shadow 23:16:20 - 251° (WSW) 4,451 11.4 -48.6°
Reaches altitude 10° 23:18:01 10° 249° (WSW) 3,930 - -48.7°
Maximum altitude 23:27:57 67° 170° (S) 1,757 - -49.2°
Drops below altitude 10° 23:37:34 10° 91° (E) 3,811 - -49.7°
Sets 23:40:38 0° 89° (E) 4,773 - -49.8°
